Location: Omaha
(41.2590°N, 95.9380°W)
Time: 04:11:35
(UTC-05:00)

Tiangong 1 - Pass Details

Date: 08 October 2017
Orbit: 293 x 320 km, 42.8° (Epoch: 19 October)

Event Time Altitude Azimuth Distance (km) Brightness Sun altitude
Rises 19:29:19 0° 256° (WSW) 2,038 6.7 -7.5°
Reaches altitude 10° 19:31:18 10° 256° (WSW) 1,205 5.1 -7.9°
Maximum altitude 19:34:00 89° 336° (NNW) 314 0.6 -8.4°
Enters shadow 19:36:17 13° 77° (ENE) 1,034 2.6 -8.9°
